Torna al catalogo

DELTA 1 R/B(2)

AttivoGTO
NORAD 1318·ROCKET BODY·🇺🇸 United States

Lanciato Apr 6, 1965 da Cape Canaveral Space Force Station

Loading…

TLE

In scadenzaSource: Space-Track

Epoca: Sep 14, 2026, 07:35 UTC

1 01318U 65028B   26257.31650449 -.00000041  00000-0  00000-0 0  9994
2 01318  17.4026 241.4984 6956798 196.5467 113.6397  2.11826235109218

Traccia DELTA 1 R/B(2) in tempo reale con AllMySat

Download on the App Store